Vorticity
8 7 6 5 5 6 7 10 11 10 10 10 15 18 18 16 15 15 16 18 13 8 10 25 28 21 11 4 2 1 2 3 3 3 4 5 6 7 8 8 8 8 8 8 9 9 9 10 10 10 10 10 10 10 10 9 9 8 8 7 7 6 6 6 6 6 6 6 6
7 6 6 5 5 6 8 10 10 9 9 12 18 20 19 14 11 12 13 14 11 11 16 28 27 20 10 4 2 2 2 3 3 4 5 6 7 8 8 8 8 8 8 9 9 9 9 10 10 10 10 10 11 10 10 10 9 9 8 8 8 7 7 7 7 7 7 6 6
7 6 5 5 5 7 8 10 8 8 11 16 22 21 17 9 8 8 9 9 9 14 22 30 25 17 8 3 2 2 2 3 4 5 7 8 9 9 9 8 8 8 8 8 9 9 9 10 10 11 11 11 11 10 10 10 10 9 9 8 8 8 8 8 7 7 7 7 7
7 5 5 5 6 7 9 8 7 9 14 22 24 19 13 7 6 6 6 7 11 19 26 28 20 12 6 2 2 2 3 4 6 7 9 9 9 9 8 8 8 8 8 8 8 9 9 10 10 11 11 11 11 11 10 10 10 10 9 9 9 9 9 9 9 8 8 8 8
6 4 4 5 7 8 8 7 8 12 18 25 22 15 8 5 6 6 6 8 16 23 26 22 14 8 4 2 2 3 4 6 8 9 9 9 8 8 8 7 7 7 8 8 8 8 9 9 10 11 11 11 11 11 11 11 11 11 11 11 11 11 10 10 9 9 9 9 9
6 5 5 6 7 7 8 8 11 17 22 25 18 10 4 3 4 6 8 12 19 23 21 15 10 6 4 3 3 4 6 7 7 7 8 7 7 7 7 7 7 7 7 7 8 8 9 9 10 10 10 11 11 11 11 12 12 12 12 11 11 10 10 9 9 9 9 9 9
8 9 9 7 6 5 7 11 16 21 23 21 13 6 1 -1 2 6 10 15 20 20 17 11 7 5 4 3 4 4 5 5 5 5 6 7 7 7 8 8 8 7 7 8 8 8 9 9 10 10 10 10 11 11 11 12 12 12 11 11 10 10 10 10 10 10 10 11 11
8 10 10 7 5 6 8 13 20 23 22 17 8 3 -1 -6 -1 4 9 16 20 19 14 9 6 4 3 3 3 3 3 3 3 4 5 7 8 8 8 8 8 8 8 8 8 8 9 9 10 10 10 10 10 11 11 12 12 11 11 11 11 11 11 12 12 12 13 14 14
8 9 8 6 5 7 10 17 22 24 21 14 4 -1 -5 -9 -0 6 13 21 22 18 13 8 5 3 3 3 2 1 1 1 2 4 6 8 9 9 8 8 8 8 8 8 8 9 9 9 9 10 10 10 11 11 11 12 12 11 11 12 12 12 12 13 13 13 14 14 14
8 8 7 5 5 9 14 21 24 24 19 11 1 -4 -6 -6 3 14 23 26 21 16 10 6 3 2 2 2 1 1 1 1 4 7 9 9 9 9 8 8 7 8 8 8 8 8 9 9 9 9 10 10 11 11 11 11 11 11 11 11 12 12 12 12 13 13 13 13 13
8 8 6 5 8 14 20 25 23 20 15 6 -1 -5 -3 3 16 27 31 25 16 10 6 4 3 2 2 2 2 2 3 5 7 9 10 9 8 8 7 7 8 8 8 8 8 8 9 9 9 9 9 9 10 10 10 10 10 10 10 11 11 11 11 11 12 12 12 12 12
8 7 7 8 14 20 24 24 20 15 8 0 -2 -0 6 19 33 35 28 15 8 5 4 4 4 4 4 4 4 5 7 8 9 10 9 8 8 7 7 7 8 8 8 8 8 8 8 9 9 9 9 9 9 9 9 9 9 10 10 10 10 10 11 11 11 11 11 11 10
7 8 10 15 21 24 24 18 14 8 3 1 4 10 20 34 37 29 15 5 4 4 5 6 6 6 6 6 7 8 9 10 9 9 8 7 7 7 7 8 8 8 8 8 8 8 8 8 8 8 8 8 8 8 8 9 9 9 9 10 10 10 10 10 10 10 9 8 8
8 12 17 24 25 22 17 10 5 2 3 10 16 22 30 36 27 15 6 4 5 6 6 7 6 7 7 8 8 9 9 9 8 8 7 7 7 7 8 8 7 7 7 7 7 8 8 8 8 8 8 8 8 8 8 8 9 9 9 10 10 10 10 10 9 8 8 7 7
16 21 26 27 20 13 7 4 1 1 5 17 23 28 30 26 13 7 5 7 8 8 7 6 5 6 7 7 8 8 8 7 7 7 7 8 8 8 8 7 7 7 7 7 7 7 7 7 7 7 7 7 7 8 8 8 9 9 10 10 10 10 9 9 8 7 7 6 6
25 28 26 20 10 4 3 5 1 0 4 14 20 25 24 15 8 7 9 11 11 9 7 4 5 5 6 6 7 7 7 7 7 8 8 8 8 7 7 7 7 7 7 7 7 7 7 7 7 7 7 7 8 8 8 9 9 9 10 10 9 9 8 7 7 6 6 5 5
26 21 14 8 2 2 4 6 2 0 2 7 14 18 18 11 9 10 12 13 11 9 6 4 5 5 6 6 6 7 7 8 8 8 8 8 7 7 7 6 6 6 6 6 6 6 6 6 7 7 8 8 8 9 9 9 9 9 9 9 8 7 7 6 6 5 5 4 4
16 8 1 1 2 4 5 4 3 2 2 4 11 15 15 11 11 13 13 13 10 7 6 6 6 6 7 7 7 8 8 8 8 8 7 7 7 7 6 6 6 6 6 6 6 6 6 6 7 8 8 9 9 9 9 9 9 9 8 7 7 6 6 5 5 4 4 4 4
4 -1 -2 0 3 5 5 4 3 3 4 7 12 14 13 12 13 14 13 11 8 6 6 7 7 7 8 8 8 8 8 8 7 7 7 7 6 6 6 6 6 6 6 6 6 6 7 7 8 8 9 9 9 9 9 9 8 7 7 6 5 5 5 4 4 4 4 4 5
-3 -3 -2 2 6 7 6 4 4 5 7 12 14 13 12 11 13 13 11 9 6 6 6 8 8 8 8 8 8 7 7 7 6 6 6 6 6 6 6 6 6 6 6 6 7 7 7 8 9 9 9 9 9 9 8 7 7 6 6 5 5 4 4 4 4 4 5 5 6
-6 -4 0 6 9 9 7 5 6 9 12 16 15 12 10 11 11 10 9 7 6 6 7 8 8 8 7 7 6 6 5 5 5 5 5 5 6 6 6 6 6 6 6 6 7 8 8 9 9 9 9 9 8 8 7 6 6 5 5 4 4 4 4 4 4 5 5 6 7
-7 -1 5 11 11 10 9 10 12 15 17 17 14 11 10 10 8 7 6 7 7 7 7 7 6 6 6 5 5 5 5 4 5 5 5 5 5 5 5 5 6 6 6 7 8 8 9 9 9 9 9 8 8 7 6 5 5 4 4 4 3 4 4 4 5 6 7 7 8
1 8 13 15 14 15 16 18 19 19 18 15 12 11 10 8 5 4 4 6 7 6 6 5 5 4 4 4 4 4 4 4 4 4 5 5 5 5 5 6 6 7 7 8 9 9 9 9 9 8 8 7 6 5 5 4 4 4 3 3 4 4 5 5 6 7 7 8 8
12 18 21 19 19 20 22 21 20 17 15 13 11 10 8 5 2 2 2 3 5 5 5 4 4 3 3 3 3 3 4 4 4 4 4 5 5 5 6 6 7 8 8 9 9 9 9 9 8 8 7 6 5 5 4 4 3 3 3 4 4 5 5 6 7 8 8 7 7
21 23 23 20 20 20 19 17 15 14 13 12 11 9 6 3 1 1 1 0 3 4 5 5 4 4 3 3 3 3 3 4 4 4 4 5 6 6 6 7 8 8 9 9 9 9 9 9 8 7 6 5 4 4 4 3 3 4 4 4 5 5 6 7 8 8 7 6 5
21 20 18 15 14 14 14 14 14 14 13 12 10 8 6 5 3 2 2 1 2 3 4 5 5 5 5 4 4 4 4 4 4 5 5 5 6 7 7 8 8 9 9 10 9 9 8 7 6 5 5 4 4 4 4 4 4 4 4 5 6 6 7 8 7 7 6 5 5
16 14 11 10 11 12 14 14 15 15 14 12 10 8 7 6 6 5 4 2 3 3 4 5 5 6 6 6 5 5 5 5 5 6 6 6 7 7 8 9 9 10 10 9 8 7 6 5 5 4 4 4 4 4 4 4 4 5 5 6 7 8 8 8 7 5 4 4 5
11 9 9 10 12 14 15 15 15 14 13 11 9 8 7 6 6 6 5 4 4 4 4 4 5 5 5 6 6 6 6 6 6 7 7 7 8 8 9 9 10 10 9 8 7 6 5 4 4 4 4 4 4 4 4 4 5 5 6 7 8 8 8 7 6 4 4 4 7
9 9 10 12 13 14 13 13 12 11 9 8 7 6 5 4 4 4 4 4 4 4 4 4 4 5 5 6 6 6 6 7 7 8 8 8 9 9 10 10 9 9 7 6 5 4 4 4 4 4 4 4 4 4 4 5 5 6 7 8 8 7 6 5 4 4 5 6 10
12 12 13 13 12 10 9 8 7 6 6 5 4 4 3 3 3 3 3 4 4 4 5 5 5 6 6 6 6 7 7 7 8 8 9 9 10 10 10 9 8 7 6 5 4 4 4 4 4 4 4 4 4 4 5 6 7 8 8 8 7 6 5 4 4 5 6 10 14
16 15 13 10 8 6 5 6 4 4 3 3 3 3 3 3 3 4 4 4 5 5 6 6 6 6 6 7 7 7 8 8 9 9 10 10 10 10 9 8 7 6 5 4 3 3 3 4 4 4 4 4 5 5 6 7 8 8 8 7 6 5 4 4 4 6 10 15 20
12 10 7 5 6 4 3 3 4 3 2 3 3 3 3 4 4 4 5 5 6 6 6 6 6 7 7 8 8 8 9 9 10 10 10 10 9 8 8 6 5 4 3 3 3 3 3 4 4 4 4 5 6 7 7 8 8 8 7 6 5 4 4 4 6 10 15 21 24
5 2 1 1 -0 2 5 7 7 6 5 5 4 4 4 5 5 5 5 5 5 6 6 6 7 7 7 8 8 9 9 9 9 9 9 8 8 7 6 5 4 3 3 3 3 3 4 3 4 4 5 6 7 7 8 8 8 7 6 5 4 4 4 6 10 15 21 25 24
3 3 4 5 7 10 11 7 7 6 5 5 5 5 5 5 5 5 5 5 5 6 6 6 7 7 8 8 8 9 9 9 9 8 8 7 6 5 4 4 3 3 3 3 3 3 3 4 4 5 6 7 7 8 8 8 7 6 5 4 3 4 6 10 15 21 25 26 19
6 5 5 6 8 8 7 5 5 5 5 5 5 5 5 5 5 5 6 6 6 6 6 6 7 7 7 8 8 8 8 8 8 7 6 5 4 4 4 4 4 3 3 3 3 4 4 4 5 6 7 7 8 8 8 7 6 5 4 3 4 6 10 15 21 25 25 21 12
9 8 7 6 6 6 5 5 5 5 5 5 5 5 5 5 5 6 6 6 6 6 6 7 7 7 7 8 8 8 8 7 7 6 5 5 4 4 4 4 3 3 3 3 3 4 4 5 6 7 7 8 8 8 7 6 5 4 4 4 6 10 15 21 25 25 20 12 5
8 7 6 5 5 5 5 5 6 6 6 6 5 5 5 6 6 6 6 6 6 6 7 7 7 7 8 8 8 8 7 7 6 5 5 4 4 4 4 3 3 3 3 3 4 4 5 6 7 7 8 8 8 7 6 5 4 4 4 6 10 15 20 25 25 20 13 5 1
6 6 6 5 5 5 5 6 6 6 6 6 6 6 6 6 6 7 7 6 7 7 8 8 8 8 8 8 8 7 7 6 5 5 4 4 4 3 3 3 3 3 3 3 4 5 6 7 8 8 8 8 7 6 5 4 4 4 6 10 15 20 23 25 21 14 7 1 -1
6 6 6 6 6 5 5 6 6 6 6 6 7 7 7 7 7 7 7 7 8 8 9 9 9 9 8 8 7 7 6 5 5 4 4 3 3 3 3 3 3 3 3 4 5 6 7 8 8 9 9 8 7 6 4 4 4 6 9 14 19 23 24 22 15 8 2 -1 -1
7 7 7 7 6 6 6 7 7 7 7 7 7 8 8 8 8 8 8 8 8 9 9 9 9 8 8 7 6 6 5 5 4 4 3 3 3 3 3 3 3 3 4 5 6 7 8 9 9 9 8 7 6 5 4 4 6 9 13 18 22 23 22 17 10 4 -0 -1 -1
8 7 7 7 7 7 7 7 7 7 7 8 8 8 8 8 8 8 8 8 8 8 8 8 8 7 7 6 5 5 5 5 4 4 3 3 3 3 3 3 3 4 5 6 8 9 9 10 9 8 7 6 4 4 4 5 8 12 17 21 23 22 18 12 5 1 -1 -1 -0
Height
5618 5624 5629 5633 5638 5642 5645 5649 5652 5656 5659 5661 5663 5665 5667 5670 5674 5678 5681 5685 5688 5692 5695 5697 5698 5699 5700 5702 5704 5707 5709 5711 5713 5715 5717 5718 5720 5722 5723 5724 5725 5727 5728 5729 5730 5731 5732 5733 5734 5735 5736 5737 5738 5739 5740 5741 5742 5743 5743 5744 5744 5745 5746 5746 5747 5747 5747 5748 5748
5617 5622 5627 5632 5636 5640 5644 5648 5651 5654 5657 5659 5661 5663 5667 5670 5674 5677 5681 5684 5688 5691 5693 5695 5696 5697 5699 5701 5703 5706 5708 5710 5712 5714 5716 5718 5719 5720 5722 5723 5724 5725 5727 5728 5729 5730 5731 5732 5733 5734 5735 5736 5737 5738 5739 5739 5740 5741 5742 5742 5743 5743 5744 5744 5745 5745 5745 5746 5746
5616 5621 5626 5631 5635 5639 5643 5646 5650 5653 5655 5658 5660 5663 5667 5671 5674 5677 5680 5683 5686 5689 5691 5693 5694 5696 5698 5700 5702 5705 5707 5709 5712 5713 5715 5717 5718 5719 5720 5722 5723 5724 5725 5726 5728 5728 5730 5731 5732 5733 5734 5735 5736 5736 5737 5738 5738 5739 5740 5740 5741 5741 5742 5742 5743 5743 5743 5743 5744
5616 5621 5626 5630 5635 5638 5642 5645 5648 5651 5654 5656 5659 5663 5667 5670 5673 5676 5679 5682 5684 5687 5689 5692 5693 5695 5697 5699 5702 5704 5707 5709 5711 5713 5714 5715 5717 5718 5719 5720 5722 5723 5724 5725 5726 5727 5728 5729 5730 5731 5733 5733 5734 5735 5736 5736 5737 5738 5738 5739 5739 5740 5740 5741 5741 5741 5741 5742 5742
5616 5621 5625 5630 5634 5638 5641 5644 5647 5650 5653 5655 5659 5663 5666 5669 5673 5675 5678 5681 5683 5686 5688 5690 5693 5695 5697 5699 5701 5704 5706 5708 5710 5712 5713 5714 5715 5717 5718 5719 5720 5722 5723 5724 5725 5726 5727 5728 5729 5730 5731 5732 5733 5733 5734 5735 5735 5736 5737 5737 5738 5738 5738 5739 5739 5739 5739 5739 5739
5616 5621 5625 5629 5633 5637 5641 5643 5646 5649 5652 5655 5659 5663 5666 5669 5672 5675 5678 5680 5682 5685 5687 5690 5692 5694 5697 5698 5701 5703 5705 5707 5709 5710 5712 5713 5714 5716 5717 5718 5719 5721 5722 5723 5724 5725 5726 5727 5728 5729 5730 5730 5731 5732 5733 5733 5734 5734 5735 5735 5736 5736 5737 5737 5737 5737 5738 5738 5738
5617 5622 5625 5628 5632 5636 5639 5642 5645 5648 5651 5655 5658 5662 5665 5668 5673 5676 5677 5679 5681 5684 5686 5689 5691 5693 5696 5698 5700 5703 5704 5706 5708 5709 5711 5712 5713 5715 5716 5717 5718 5720 5721 5722 5723 5724 5725 5726 5727 5728 5728 5729 5730 5730 5731 5732 5732 5733 5733 5734 5734 5734 5735 5735 5735 5735 5736 5736 5736
5618 5621 5624 5627 5630 5634 5638 5641 5644 5647 5651 5654 5658 5661 5665 5668 5673 5675 5676 5678 5680 5683 5686 5688 5690 5692 5695 5697 5699 5702 5703 5705 5707 5708 5710 5712 5713 5714 5715 5716 5718 5719 5720 5721 5722 5723 5723 5724 5725 5726 5727 5728 5728 5729 5729 5730 5731 5731 5732 5732 5733 5733 5733 5733 5733 5733 5734 5734 5734
5616 5620 5623 5626 5629 5633 5637 5640 5643 5647 5651 5654 5658 5661 5664 5668 5671 5673 5674 5677 5680 5683 5685 5687 5689 5692 5694 5696 5698 5701 5703 5704 5706 5708 5709 5711 5712 5713 5714 5715 5717 5718 5719 5720 5721 5722 5722 5723 5724 5725 5725 5726 5727 5728 5728 5729 5729 5730 5730 5731 5731 5731 5731 5731 5732 5732 5732 5732 5732
5615 5619 5622 5625 5629 5633 5637 5640 5644 5648 5652 5655 5658 5661 5664 5667 5670 5672 5674 5677 5680 5683 5685 5687 5689 5691 5693 5695 5698 5700 5702 5704 5705 5707 5708 5709 5711 5712 5713 5714 5715 5717 5718 5718 5719 5720 5721 5722 5723 5723 5724 5725 5726 5726 5727 5727 5728 5728 5729 5729 5729 5729 5729 5729 5730 5730 5730 5730 5730
5615 5618 5622 5625 5629 5633 5637 5641 5645 5649 5652 5655 5658 5661 5664 5667 5668 5671 5674 5677 5680 5683 5684 5686 5688 5691 5693 5695 5697 5699 5701 5703 5704 5706 5707 5708 5709 5711 5712 5713 5714 5715 5716 5717 5718 5719 5720 5721 5722 5722 5723 5723 5724 5725 5725 5726 5726 5727 5727 5727 5727 5728 5728 5728 5728 5728 5728 5728 5728
5615 5618 5622 5626 5629 5633 5637 5642 5645 5648 5652 5656 5659 5662 5664 5667 5668 5671 5674 5677 5680 5682 5684 5686 5688 5690 5692 5694 5697 5698 5700 5702 5703 5704 5706 5707 5708 5709 5711 5712 5713 5714 5715 5716 5717 5718 5718 5719 5720 5721 5722 5722 5723 5723 5724 5724 5725 5725 5725 5725 5726 5726 5726 5726 5726 5726 5726 5726 5726
5615 5619 5623 5626 5630 5634 5638 5642 5646 5649 5653 5657 5660 5662 5664 5665 5668 5671 5674 5677 5679 5682 5683 5686 5688 5690 5692 5694 5696 5698 5699 5701 5702 5703 5705 5706 5707 5708 5710 5711 5712 5713 5714 5715 5716 5717 5718 5718 5719 5720 5720 5721 5722 5722 5723 5723 5723 5723 5724 5724 5724 5724 5724 5724 5724 5725 5725 5724 5724
5616 5619 5623 5627 5631 5635 5639 5643 5647 5650 5653 5656 5659 5662 5664 5665 5668 5671 5674 5676 5679 5681 5683 5685 5687 5689 5692 5693 5695 5697 5698 5699 5701 5702 5704 5705 5706 5708 5709 5710 5711 5712 5713 5714 5715 5716 5716 5717 5718 5718 5719 5720 5720 5720 5721 5721 5722 5722 5722 5722 5722 5723 5723 5723 5723 5723 5723 5723 5723
5617 5621 5624 5628 5632 5636 5640 5644 5648 5651 5653 5656 5660 5663 5664 5666 5668 5671 5673 5676 5678 5680 5682 5685 5687 5689 5691 5693 5694 5695 5697 5698 5700 5702 5703 5704 5706 5707 5708 5709 5710 5711 5712 5713 5714 5714 5715 5716 5717 5717 5718 5718 5718 5719 5719 5719 5720 5720 5720 5721 5721 5721 5721 5721 5721 5721 5721 5721 5721
5619 5623 5627 5630 5634 5637 5641 5644 5648 5652 5654 5658 5661 5663 5664 5666 5668 5671 5673 5675 5677 5679 5682 5684 5686 5688 5690 5692 5693 5695 5696 5698 5699 5701 5702 5703 5705 5706 5707 5708 5709 5710 5711 5712 5713 5713 5714 5715 5715 5716 5716 5717 5717 5718 5718 5718 5718 5718 5719 5719 5719 5719 5720 5720 5720 5720 5720 5720 5720
5621 5625 5629 5633 5636 5639 5642 5645 5649 5654 5657 5659 5661 5662 5664 5667 5668 5670 5672 5674 5676 5678 5681 5683 5686 5688 5689 5691 5693 5694 5696 5698 5699 5700 5702 5703 5704 5705 5706 5707 5708 5709 5710 5711 5711 5712 5713 5713 5714 5714 5715 5715 5716 5716 5716 5717 5717 5717 5717 5718 5718 5718 5718 5718 5718 5718 5718 5718 5718
5624 5628 5631 5634 5638 5641 5644 5647 5652 5656 5658 5659 5660 5662 5664 5666 5668 5670 5672 5674 5676 5678 5681 5683 5685 5687 5689 5691 5692 5694 5695 5697 5698 5699 5701 5702 5703 5704 5705 5706 5707 5708 5708 5709 5710 5711 5712 5712 5713 5713 5713 5714 5714 5714 5715 5715 5715 5716 5716 5716 5717 5717 5717 5717 5717 5717 5717 5717 5716
5626 5629 5633 5636 5639 5643 5646 5650 5653 5656 5657 5658 5660 5662 5664 5666 5668 5670 5672 5674 5676 5678 5681 5683 5685 5687 5688 5690 5692 5693 5694 5696 5697 5698 5699 5701 5702 5703 5704 5705 5706 5707 5708 5708 5709 5710 5710 5711 5711 5712 5712 5713 5713 5713 5713 5714 5714 5714 5715 5715 5715 5715 5716 5716 5715 5715 5715 5715 5714
5627 5631 5634 5638 5643 5646 5648 5651 5653 5655 5656 5658 5659 5662 5664 5666 5668 5670 5672 5674 5676 5678 5681 5683 5684 5686 5688 5689 5691 5692 5694 5695 5696 5698 5698 5700 5701 5702 5703 5704 5705 5705 5706 5707 5708 5708 5709 5709 5710 5710 5711 5711 5712 5712 5712 5712 5713 5713 5713 5713 5714 5714 5714 5714 5713 5713 5713 5713 5712
5629 5633 5638 5641 5644 5646 5648 5649 5651 5653 5655 5657 5659 5661 5663 5665 5667 5669 5672 5674 5677 5679 5681 5683 5684 5686 5687 5689 5690 5692 5693 5694 5695 5696 5698 5698 5700 5701 5702 5703 5703 5704 5705 5706 5706 5707 5708 5708 5708 5709 5709 5710 5710 5710 5711 5711 5712 5712 5712 5712 5712 5712 5712 5712 5712 5711 5711 5711 5710
5632 5636 5639 5641 5643 5644 5646 5648 5651 5653 5655 5657 5659 5661 5663 5665 5667 5669 5672 5674 5677 5679 5680 5682 5684 5685 5687 5688 5690 5691 5692 5693 5694 5695 5697 5698 5698 5700 5701 5702 5703 5703 5704 5704 5705 5706 5706 5707 5707 5708 5708 5708 5709 5709 5710 5710 5710 5711 5711 5711 5711 5710 5710 5710 5710 5709 5709 5709 5709
5634 5636 5638 5640 5642 5644 5646 5648 5650 5652 5654 5657 5659 5661 5663 5665 5667 5669 5672 5674 5677 5678 5680 5682 5683 5685 5686 5688 5689 5690 5692 5693 5694 5695 5696 5697 5698 5699 5700 5701 5701 5702 5703 5703 5704 5705 5705 5706 5706 5707 5707 5708 5708 5709 5709 5709 5709 5709 5709 5709 5709 5709 5708 5708 5708 5708 5708 5707 5707
5634 5637 5639 5641 5643 5645 5647 5648 5650 5652 5654 5657 5659 5661 5663 5666 5668 5670 5672 5674 5676 5678 5680 5682 5683 5684 5686 5687 5688 5690 5691 5692 5693 5694 5695 5696 5697 5698 5698 5699 5700 5701 5702 5702 5703 5703 5704 5704 5705 5705 5706 5706 5707 5707 5707 5707 5707 5707 5707 5707 5707 5707 5707 5707 5706 5706 5706 5706 5705
5635 5638 5640 5642 5643 5645 5647 5648 5651 5653 5655 5658 5660 5663 5665 5667 5669 5671 5672 5674 5676 5678 5680 5681 5683 5685 5686 5687 5688 5689 5690 5691 5693 5693 5694 5695 5696 5697 5698 5698 5699 5700 5700 5701 5702 5702 5703 5703 5704 5704 5705 5705 5705 5705 5705 5705 5705 5705 5705 5705 5705 5705 5705 5705 5705 5704 5704 5704 5704
5637 5639 5641 5642 5644 5645 5647 5649 5651 5654 5656 5658 5661 5663 5665 5668 5669 5671 5673 5674 5676 5678 5679 5681 5683 5685 5686 5686 5687 5688 5689 5691 5692 5693 5693 5694 5695 5696 5697 5697 5698 5699 5699 5700 5701 5701 5702 5702 5703 5703 5703 5703 5703 5704 5704 5703 5703 5703 5703 5703 5703 5703 5703 5703 5703 5703 5703 5702 5702
5638 5639 5641 5643 5644 5646 5648 5650 5653 5655 5657 5659 5662 5664 5666 5668 5669 5671 5673 5674 5676 5678 5679 5681 5682 5683 5685 5686 5687 5688 5689 5691 5691 5692 5693 5693 5694 5695 5696 5696 5697 5698 5698 5699 5699 5700 5700 5701 5701 5702 5702 5702 5702 5702 5702 5702 5702 5702 5702 5702 5702 5702 5702 5702 5702 5701 5701 5700 5700
5638 5640 5642 5643 5645 5647 5649 5652 5654 5656 5658 5660 5662 5664 5666 5668 5670 5671 5673 5675 5676 5678 5679 5680 5682 5683 5684 5685 5687 5688 5689 5690 5691 5691 5692 5693 5693 5694 5695 5695 5696 5697 5697 5698 5698 5699 5699 5700 5700 5700 5700 5700 5700 5700 5700 5700 5700 5700 5701 5701 5700 5700 5700 5700 5700 5699 5699 5698 5698
5639 5641 5643 5644 5646 5648 5651 5653 5655 5657 5659 5661 5663 5664 5666 5668 5670 5672 5673 5675 5676 5678 5679 5680 5681 5683 5684 5685 5686 5687 5688 5689 5689 5690 5691 5692 5692 5693 5694 5694 5695 5695 5696 5697 5697 5698 5698 5698 5698 5698 5699 5699 5699 5699 5699 5699 5699 5699 5699 5699 5699 5698 5698 5698 5698 5698 5697 5697 5696
5640 5642 5643 5645 5648 5649 5652 5654 5656 5658 5659 5661 5663 5665 5667 5668 5670 5672 5673 5675 5676 5677 5678 5680 5681 5682 5683 5684 5685 5686 5687 5688 5688 5689 5690 5691 5691 5692 5693 5693 5694 5694 5695 5695 5696 5696 5697 5697 5697 5697 5697 5697 5698 5698 5698 5698 5698 5698 5697 5697 5697 5697 5697 5696 5696 5696 5695 5695 5695
5642 5643 5645 5647 5649 5651 5653 5655 5657 5658 5659 5661 5663 5665 5667 5668 5670 5671 5673 5674 5675 5677 5678 5679 5680 5681 5683 5683 5684 5685 5686 5687 5688 5688 5689 5690 5691 5691 5692 5692 5693 5693 5694 5694 5695 5695 5695 5695 5696 5696 5696 5696 5696 5696 5696 5696 5696 5696 5696 5695 5695 5695 5695 5695 5694 5694 5694 5693 5693
5645 5646 5647 5648 5650 5653 5655 5657 5658 5660 5661 5662 5664 5665 5667 5669 5670 5671 5672 5673 5675 5677 5678 5678 5680 5681 5682 5683 5683 5684 5685 5686 5687 5688 5688 5689 5690 5690 5691 5691 5692 5692 5693 5693 5693 5693 5693 5694 5694 5694 5694 5695 5695 5695 5694 5694 5694 5694 5694 5694 5694 5693 5693 5693 5693 5693 5692 5692 5692
5647 5648 5648 5649 5651 5654 5657 5658 5658 5660 5662 5663 5664 5665 5667 5669 5671 5671 5672 5673 5675 5676 5677 5678 5679 5680 5681 5682 5683 5684 5685 5685 5686 5687 5688 5688 5689 5689 5690 5690 5690 5691 5691 5691 5692 5692 5693 5693 5693 5693 5693 5693 5693 5693 5693 5693 5693 5693 5693 5693 5692 5692 5692 5692 5691 5691 5691 5691 5690
5647 5648 5648 5649 5651 5653 5655 5657 5658 5659 5661 5663 5664 5665 5667 5668 5670 5671 5672 5673 5674 5675 5676 5677 5678 5679 5680 5681 5682 5683 5684 5685 5686 5686 5687 5687 5688 5688 5688 5688 5689 5689 5690 5690 5691 5691 5691 5691 5691 5692 5692 5692 5691 5691 5691 5691 5691 5691 5691 5691 5691 5691 5690 5690 5690 5689 5689 5689 5689
5648 5648 5649 5650 5652 5653 5655 5657 5658 5660 5661 5663 5664 5665 5667 5668 5669 5670 5671 5672 5673 5674 5675 5676 5678 5678 5679 5681 5682 5683 5683 5684 5685 5685 5685 5686 5686 5686 5687 5688 5688 5688 5688 5689 5689 5689 5690 5690 5690 5690 5690 5690 5690 5690 5690 5690 5690 5690 5690 5689 5689 5689 5689 5688 5688 5688 5688 5688 5688
5648 5649 5650 5651 5653 5654 5656 5657 5658 5660 5661 5663 5664 5665 5667 5668 5669 5670 5671 5672 5673 5674 5675 5676 5677 5678 5679 5680 5681 5682 5682 5683 5683 5684 5684 5684 5685 5685 5686 5686 5687 5687 5687 5688 5688 5688 5688 5688 5688 5688 5688 5688 5688 5688 5688 5688 5688 5688 5688 5688 5688 5688 5687 5687 5687 5686 5686 5686 5686
5648 5650 5651 5652 5653 5655 5656 5658 5659 5660 5662 5663 5664 5665 5667 5668 5669 5670 5671 5672 5673 5674 5675 5676 5677 5678 5678 5679 5680 5680 5681 5682 5682 5683 5683 5683 5684 5684 5685 5685 5685 5686 5686 5686 5686 5686 5687 5687 5687 5687 5687 5687 5687 5687 5687 5687 5687 5687 5687 5687 5686 5686 5685 5685 5685 5685 5685 5685 5684
5649 5650 5651 5652 5653 5655 5656 5658 5659 5660 5662 5663 5664 5665 5667 5668 5669 5670 5670 5671 5673 5673 5674 5675 5676 5677 5678 5678 5679 5679 5680 5680 5681 5681 5682 5682 5683 5683 5683 5684 5684 5684 5684 5685 5685 5685 5685 5685 5685 5685 5685 5686 5686 5686 5686 5686 5686 5686 5685 5685 5684 5684 5683 5683 5683 5683 5683 5683 5683
5649 5650 5651 5652 5653 5655 5656 5657 5659 5660 5661 5663 5664 5665 5666 5667 5668 5669 5670 5671 5672 5673 5673 5674 5675 5676 5677 5677 5678 5678 5679 5679 5680 5680 5681 5681 5682 5682 5682 5683 5683 5683 5683 5683 5683 5684 5684 5684 5684 5684 5684 5684 5684 5684 5684 5684 5684 5684 5683 5683 5683 5682 5682 5682 5682 5682 5682 5682 5682
5649 5650 5651 5653 5654 5655 5656 5658 5659 5660 5661 5662 5663 5664 5665 5666 5668 5668 5669 5670 5671 5672 5673 5673 5674 5675 5675 5676 5677 5677 5678 5678 5679 5679 5679 5680 5680 5681 5681 5681 5682 5682 5682 5682 5682 5683 5683 5683 5683 5683 5683 5683 5683 5683 5683 5683 5683 5682 5682 5681 5681 5681 5680 5680 5680 5680 5680 5680 5680
5649 5651 5652 5653 5654 5655 5656 5658 5659 5660 5661 5662 5663 5664 5665 5666 5667 5668 5669 5670 5670 5671 5672 5673 5673 5674 5674 5675 5676 5676 5677 5677 5678 5678 5678 5679 5679 5679 5680 5680 5680 5681 5681 5681 5681 5681 5682 5682 5682 5682 5682 5682 5682 5681 5681 5681 5680 5680 5680 5679 5679 5679 5679 5679 5679 5679 5679 5678 5678